When you browse on this site, cookies collect data to enhance your experience and personalize the content and advertising you see.
Visit our Privacy Policy to learn more. By continuing to use the site, you agree to this use of cookies and data.
  • In Germany
  • List of Countries
  • For 7 days
  • Water Temperature
  • Satellite Maps
  • Weather Map
  • Weather Widgets
  • user-avatar
    Login

    Hourly Weather Brasília

    Today, 16 January, Wednesday

    Time Temperature Precipitation Wind Pressure Humidity
    00:00 +22°C° 0.3 mm 1 mps 667 mmHg 81%
    01:00 +22°C° 0 mm 1 mps 667 mmHg 82%
    02:00 +19°C° 0 mm 0 mps 667 mmHg 82%
    03:00 +19°C° 0 mm 0 mps 667 mmHg 82%
    04:00 +19°C° 0 mm 0 mps 667 mmHg 84%
    05:00 +18°C° 0 mm 0 mps 667 mmHg 85%
    06:00 +18°C° 0 mm 0 mps 667 mmHg 87%
    07:00 +22°C° 0 mm 1 mps 668 mmHg 80%
    08:00 +24°C° 0 mm 1 mps 669 mmHg 74%
    09:00 +27°C° 0 mm 2 mps 670 mmHg 67%
    10:00 +28°C° 0.3 mm 2 mps 670 mmHg 63%
    11:00 +29°C° 0.3 mm 3 mps 669 mmHg 59%
    12:00 +30°C° 0.3 mm 3 mps 669 mmHg 54%
    13:00 +30°C° 0.3 mm 3 mps 669 mmHg 53%
    14:00 +31°C° 0.3 mm 2 mps 669 mmHg 52%
    15:00 +31°C° 0.3 mm 2 mps 668 mmHg 51%
    16:00 +30°C° 0 mm 2 mps 668 mmHg 55%
    17:00 +29°C° 0 mm 1 mps 667 mmHg 59%
    18:00 +28°C° 0 mm 1 mps 666 mmHg 63%
    19:00 +27°C° 0.1 mm 1 mps 667 mmHg 66%
    20:00 +26°C° 0.1 mm 1 mps 667 mmHg 69%
    21:00 +24°C° 0.1 mm 1 mps 667 mmHg 72%
    22:00 +24°C° 0 mm 1 mps 667 mmHg 73%
    23:00 +24°C° 0 mm 1 mps 667 mmHg 74%

    Tomorrow, 17 January, Thursday

    Time Temperature Precipitation Wind Pressure Humidity
    00:00 +23°C° 0 mm 1 mps 667 mmHg 75%
    01:00 +23°C° 0 mm 1 mps 667 mmHg 76%
    02:00 +23°C° 0 mm 1 mps 667 mmHg 77%
    03:00 +22°C° 0 mm 1 mps 667 mmHg 78%
    04:00 +21°C° 0 mm 2 mps 666 mmHg 80%
    05:00 +21°C° 0 mm 2 mps 666 mmHg 81%
    06:00 +21°C° 0 mm 2 mps 666 mmHg 83%
    07:00 +23°C° 0 mm 2 mps 667 mmHg 78%
    08:00 +25°C° 0 mm 2 mps 668 mmHg 72%
    09:00 +27°C° 0 mm 2 mps 668 mmHg 67%
    10:00 +28°C° 0 mm 3 mps 668 mmHg 61%
    11:00 +29°C° 0 mm 3 mps 669 mmHg 56%
    12:00 +30°C° 0 mm 3 mps 669 mmHg 50%
    13:00 +31°C° 0 mm 2 mps 668 mmHg 50%
    14:00 +31°C° 0 mm 2 mps 668 mmHg 49%
    15:00 +31°C° 0 mm 1 mps 667 mmHg 48%
    16:00 +30°C° 0.2 mm 1 mps 667 mmHg 54%
    17:00 +29°C° 0.2 mm 1 mps 666 mmHg 59%
    18:00 +28°C° 0.2 mm 2 mps 666 mmHg 64%
    19:00 +27°C° 0.5 mm 1 mps 666 mmHg 67%
    20:00 +26°C° 0.5 mm 1 mps 666 mmHg 69%
    21:00 +23°C° 0.5 mm 0 mps 666 mmHg 71%
    22:00 +24°C° 1.2 mm 1 mps 666 mmHg 77%
    23:00 +23°C° 1.2 mm 1 mps 666 mmHg 82%

    Day after tomorrow, 18 January, Friday

    Time Temperature Precipitation Wind Pressure Humidity
    00:00 +21°C° 1.2 mm 2 mps 666 mmHg 87%
    01:00 +21°C° 0 mm 2 mps 666 mmHg 87%
    02:00 +21°C° 0 mm 2 mps 665 mmHg 86%
    03:00 +21°C° 0 mm 2 mps 665 mmHg 86%
    04:00 +21°C° 0 mm 1 mps 665 mmHg 86%
    05:00 +21°C° 0 mm 1 mps 665 mmHg 87%
    06:00 +21°C° 0 mm 1 mps 665 mmHg 88%
    07:00 +22°C° 0.7 mm 1 mps 666 mmHg 83%
    08:00 +24°C° 0.7 mm 2 mps 666 mmHg 77%
    09:00 +26°C° 0.7 mm 2 mps 667 mmHg 72%
    10:00 +26°C° 1.2 mm 2 mps 667 mmHg 68%
    11:00 +27°C° 1.2 mm 2 mps 668 mmHg 64%
    12:00 +28°C° 1.2 mm 2 mps 668 mmHg 61%
    13:00 +29°C° 0 mm 2 mps 667 mmHg 58%
    14:00 +29°C° 0 mm 2 mps 666 mmHg 56%
    15:00 +30°C° 0 mm 1 mps 666 mmHg 53%
    16:00 +28°C° 0.7 mm 2 mps 665 mmHg 59%
    17:00 +27°C° 0.7 mm 2 mps 665 mmHg 66%
    18:00 +26°C° 0.7 mm 2 mps 665 mmHg 72%
    19:00 +25°C° 0.3 mm 2 mps 665 mmHg 74%
    20:00 +24°C° 0.3 mm 2 mps 664 mmHg 75%
    21:00 +21°C° 0.3 mm 2 mps 664 mmHg 77%
    22:00 +22°C° 0.2 mm 1 mps 665 mmHg 77%
    23:00 +22°C° 0.2 mm 1 mps 665 mmHg 77%

    19 January, Saturday

    Time Temperature Precipitation Wind Pressure Humidity
    00:00 +20°C° 0.2 mm 0 mps 665 mmHg 77%
    01:00 +19°C° 1 mm 0 mps 665 mmHg 80%
    02:00 +19°C° 1 mm 0 mps 664 mmHg 84%
    03:00 +20°C° 1 mm 1 mps 664 mmHg 87%
    04:00 +20°C° 0.1 mm 1 mps 664 mmHg 87%
    05:00 +20°C° 0.1 mm 1 mps 664 mmHg 87%
    06:00 +20°C° 0.1 mm 1 mps 665 mmHg 88%
    07:00 +21°C° 0.1 mm 2 mps 665 mmHg 81%
    08:00 +24°C° 0.1 mm 2 mps 666 mmHg 73%
    09:00 +26°C° 0.1 mm 3 mps 667 mmHg 66%
    10:00 +27°C° 0 mm 3 mps 667 mmHg 62%
    11:00 +29°C° 0 mm 3 mps 667 mmHg 57%
    12:00 +30°C° 0 mm 3 mps 667 mmHg 52%
    13:00 +30°C° 0 mm 3 mps 667 mmHg 52%
    14:00 +30°C° 0 mm 2 mps 666 mmHg 51%
    15:00 +30°C° 0 mm 2 mps 666 mmHg 51%
    16:00 +29°C° 0.3 mm 2 mps 665 mmHg 56%
    17:00 +28°C° 0.3 mm 1 mps 665 mmHg 61%
    18:00 +27°C° 0.3 mm 1 mps 665 mmHg 66%
    19:00 +25°C° 0.6 mm 1 mps 665 mmHg 69%
    20:00 +24°C° 0.6 mm 1 mps 665 mmHg 72%
    21:00 +21°C° 0.6 mm 0 mps 665 mmHg 75%
    22:00 +21°C° 0 mm 0 mps 665 mmHg 76%
    23:00 +20°C° 0 mm 0 mps 665 mmHg 77%

    20 January, Sunday

    Time Temperature Precipitation Wind Pressure Humidity
    00:00 +22°C° 0 mm 1 mps 666 mmHg 78%
    01:00 +22°C° 0.1 mm 1 mps 665 mmHg 79%
    02:00 +21°C° 0.1 mm 1 mps 665 mmHg 80%
    03:00 +21°C° 0.1 mm 1 mps 664 mmHg 81%
    04:00 +21°C° 0.1 mm 1 mps 665 mmHg 81%
    05:00 +21°C° 0.1 mm 1 mps 665 mmHg 81%
    06:00 +20°C° 0.1 mm 1 mps 665 mmHg 81%
    07:00 +21°C° 0 mm 2 mps 666 mmHg 75%
    08:00 +24°C° 0 mm 2 mps 667 mmHg 68%
    09:00 +26°C° 0 mm 3 mps 668 mmHg 61%
    10:00 +28°C° 0 mm 3 mps 668 mmHg 56%
    11:00 +29°C° 0 mm 3 mps 668 mmHg 51%
    12:00 +30°C° 0 mm 3 mps 668 mmHg 46%
    13:00 +30°C° 0 mm 3 mps 667 mmHg 45%
    14:00 +31°C° 0 mm 2 mps 667 mmHg 44%
    15:00 +31°C° 0 mm 2 mps 666 mmHg 42%
    16:00 +30°C° 0 mm 2 mps 666 mmHg 47%
    17:00 +29°C° 0 mm 1 mps 666 mmHg 52%
    18:00 +27°C° 0 mm 1 mps 665 mmHg 57%
    19:00 +26°C° 0 mm 1 mps 666 mmHg 58%
    20:00 +25°C° 0 mm 1 mps 666 mmHg 60%
    21:00 +24°C° 0 mm 1 mps 666 mmHg 61%
    22:00 +24°C° 0 mm 1 mps 666 mmHg 63%
    23:00 +23°C° 0 mm 1 mps 666 mmHg 64%

    21 January, Monday

    Time Temperature Precipitation Wind Pressure Humidity
    00:00 +22°C° 0 mm 1 mps 666 mmHg 66%
    01:00 +22°C° 0 mm 1 mps 666 mmHg 68%
    02:00 +21°C° 0 mm 1 mps 665 mmHg 69%
    03:00 +21°C° 0 mm 1 mps 665 mmHg 71%
    04:00 +20°C° 0 mm 1 mps 665 mmHg 71%
    05:00 +20°C° 0 mm 1 mps 665 mmHg 71%
    06:00 +20°C° 0 mm 1 mps 665 mmHg 72%
    07:00 +22°C° 0 mm 1 mps 666 mmHg 66%
    08:00 +25°C° 0 mm 2 mps 667 mmHg 60%
    09:00 +27°C° 0 mm 2 mps 668 mmHg 54%
    10:00 +28°C° 0 mm 2 mps 668 mmHg 50%
    11:00 +29°C° 0 mm 3 mps 668 mmHg 46%
    12:00 +31°C° 0 mm 3 mps 668 mmHg 42%
    13:00 +31°C° 0 mm 2 mps 667 mmHg 42%
    14:00 +31°C° 0 mm 2 mps 667 mmHg 42%
    15:00 +31°C° 0 mm 1 mps 666 mmHg 41%
    16:00 +30°C° 0 mm 1 mps 666 mmHg 46%
    17:00 +29°C° 0 mm 1 mps 666 mmHg 50%
    18:00 +28°C° 0 mm 1 mps 665 mmHg 54%
    19:00 +27°C° 0 mm 1 mps 666 mmHg 56%
    20:00 +26°C° 0 mm 1 mps 666 mmHg 57%
    21:00 +22°C° 0 mm 0 mps 666 mmHg 59%
    22:00 +22°C° 0 mm 0 mps 666 mmHg 60%
    23:00 +22°C° 0 mm 0 mps 667 mmHg 62%
    Show more